MCMWTC BRIDGEPORT, CA, CA

5:39 PM PST on December 15, 2017 (GMT -0800)
MCMWTC BRIDGEPORT, CA

Weather History for KBAN - March, 2014

Change the Weather History Date:

Saturday, March 1, 2014

  Actual Average (KTVL) Record (KTVL)
Temperature  
Mean Temperature 30 °F -  
Max Temperature 39 °F 42 °F 56 °F (2013)
Min Temperature 21 °F 22 °F 1 °F (2007)
Degree Days  
Heating Degree Days 35    
Moisture  
Dew Point 23 °F    
Average Humidity 70    
Maximum Humidity 85    
Minimum Humidity 57    
Precipitation  
Precipitation 0.03 in - - ()
Sea Level Pressure  
Sea Level Pressure 29.70 in    
Wind  
Wind Speed 3 mph (North)    
Max Wind Speed 9 mph    
Max Gust Speed -    
Visibility 10 miles    
Events Snow    
Averages and records for this station are not official NWS values.
T = Trace of Precipitation, MM = Missing Value Source: NWS Daily Summary

Daily Weather History Graph

Daily Weather History Graph

Search for Another Location

Airport or City:

Trip Planner

Search our weather history database for the weather conditions in past years. The results will help you decide how hot, cold, wet, or windy it might be!

Date:

Astronomy

Mar. 01, 2014 Rise Set
Actual Time 6:29 AM PST 5:51 PM PST
Civil Twilight 6:03 AM PST 6:17 PM PST
Nautical Twilight 5:32 AM PST 6:48 PM PST
Astronomical Twilight 5:02 AM PST 7:19 PM PST
Moon 6:27 AM PST (3/1) 6:43 PM PST (3/1)
Length of Visible Light 12h 14m
Length of Day
11h 21m
New Moon, 0% of the Moon is Illuminated
Mar 1
New Moon
Mar 8
First Quarter
Mar 16
Full
Mar 23
Last Quarter
Mar 30
New

Hourly Weather History & Observations

Time (PST) Temp. Windchill Dew Point Humidity Pressure Visibility Wind Dir Wind Speed Gust Speed Precip Events Conditions
12:20 AM 30.0 °F 26.5 °F 23.0 °F 75% 29.52 in - NE 3.5 mph - 0.00 in   Mostly Cloudy
12:52 AM 30.0 °F 24.1 °F 19.9 °F 66% 29.50 in - WNW 5.8 mph - 0.00 in   Scattered Clouds
1:52 AM 30.0 °F - 19.0 °F 64% 29.50 in 10.0 mi Calm Calm - N/A   Partly Cloudy
2:52 AM 28.9 °F 25.2 °F 19.0 °F 67% 29.53 in - Variable 3.5 mph - N/A   Overcast
3:52 AM 27.0 °F 20.5 °F 19.9 °F 75% 29.57 in 10.0 mi North 5.8 mph - N/A   Mostly Cloudy
4:52 AM 30.0 °F 25.2 °F 21.0 °F 69% 29.57 in - West 4.6 mph - N/A   Overcast
5:52 AM 30.9 °F 27.5 °F 21.0 °F 67% 29.61 in - Variable 3.5 mph - N/A   Overcast
6:52 AM 30.0 °F - 23.0 °F 75% 29.63 in - Calm Calm - N/A   Overcast
7:52 AM 32.0 °F 28.7 °F 23.0 °F 69% 29.65 in - ENE 3.5 mph - N/A   Overcast
8:52 AM 33.1 °F - 24.1 °F 70% 29.68 in - Calm Calm - N/A   Overcast
9:52 AM 35.1 °F 29.3 °F 24.1 °F 64% 29.72 in - Variable 6.9 mph - N/A   Overcast
10:52 AM 36.0 °F - 25.0 °F 64% 29.73 in - Calm Calm - 0.03 in Snow Light Snow
11:52 AM 33.1 °F - 26.1 °F 75% 29.75 in - Calm Calm - 0.00 in   Overcast
12:52 PM 36.0 °F 32.1 °F 26.1 °F 67% 29.73 in - Variable 4.6 mph - N/A   Mostly Cloudy
1:52 PM 37.9 °F 35.5 °F 24.1 °F 57% 29.70 in - Variable 3.5 mph - N/A   Overcast
2:52 PM 37.9 °F 31.5 °F 26.1 °F 62% 29.71 in - ENE 9.2 mph - N/A   Mostly Cloudy
3:52 PM 39.0 °F 36.8 °F 25.0 °F 57% 29.73 in - East 3.5 mph - N/A   Overcast
4:52 PM 37.0 °F 31.6 °F 27.0 °F 67% 29.74 in - NE 6.9 mph - N/A   Overcast
5:52 PM 34.0 °F 29.8 °F 26.1 °F 73% 29.77 in 10.0 mi NNE 4.6 mph - N/A   Clear
6:52 PM 32.0 °F - 25.0 °F 75% 29.82 in - Calm Calm - N/A   Clear
7:52 PM 28.9 °F 25.2 °F 23.0 °F 78% 29.83 in - NW 3.5 mph - N/A   Clear
8:52 PM 28.9 °F 21.9 °F 21.0 °F 72% 29.84 in - NNW 6.9 mph - N/A   Clear
9:52 PM 25.0 °F 20.7 °F 19.0 °F 78% 29.87 in - NNW 3.5 mph - N/A   Clear
10:52 PM 21.9 °F - 18.0 °F 85% 29.91 in 10.0 mi Calm Calm - N/A   Clear
11:52 PM 21.9 °F - 18.0 °F 85% 29.91 in 10.0 mi Calm Calm - N/A   Clear